Rockport, TX

3:50 PM CST on December 16, 2017 (GMT -0600)
Aransas County

Weather History for KRKP - September, 2013

Change the Weather History Date:

Saturday, September 14, 2013

  Actual Average Record
Temperature  
Mean Temperature 85 °F -  
Max Temperature 91 °F 88 °F 94 °F (1987)
Min Temperature 79 °F 75 °F 62 °F (1974)
Cooling Degree Days 20    
Growing Degree Days 35 (Base 50)    
Moisture  
Dew Point 75 °F    
Average Humidity 73    
Maximum Humidity 90    
Minimum Humidity 55    
Precipitation  
Precipitation 0.00 in - - ()
Sea Level Pressure  
Sea Level Pressure 29.85 in    
Wind  
Wind Speed 10 mph (East)    
Max Wind Speed 17 mph    
Max Gust Speed 24 mph    
Visibility 10 miles    
Events      
Averages and records for this station are not official NWS values.
T = Trace of Precipitation, MM = Missing Value Source: NWS Daily Summary

Daily Weather History Graph

Daily Weather History Graph

Search for Another Location

Airport or City:

Trip Planner

Search our weather history database for the weather conditions in past years. The results will help you decide how hot, cold, wet, or windy it might be!

Date:

Astronomy

Sep. 14, 2013 Rise Set
Actual Time 7:12 AM CDT 7:33 PM CDT
Civil Twilight 6:49 AM CDT 7:57 PM CDT
Nautical Twilight 6:21 AM CDT 8:24 PM CDT
Astronomical Twilight 5:54 AM CDT 8:52 PM CDT
Moon 3:57 PM CDT (9/14) 2:06 AM CDT (9/14)
Length of Visible Light 13h 07m
Length of Day
12h 20m
Waxing Gibbous, 72% of the Moon is Illuminated
Sep 14
Waxing Gibbous
Sep 19
Full
Sep 26
Last Quarter
Oct 4
New
Oct 11
First Quarter

Hourly Weather History & Observations

Time (CDT) Temp. Heat Index Dew Point Humidity Pressure Visibility Wind Dir Wind Speed Gust Speed Precip Events Conditions
12:53 AM 82.9 °F 90.2 °F 75.0 °F 77% 29.84 in 10.0 mi ESE 9.2 mph - N/A   Clear
1:53 AM 82.0 °F 89.4 °F 75.9 °F 82% 29.84 in 10.0 mi East 8.1 mph - N/A   Partly Cloudy
2:53 AM 82.9 °F 90.8 °F 75.9 °F 79% 29.83 in 10.0 mi East 8.1 mph - N/A   Partly Cloudy
3:53 AM 82.0 °F 88.6 °F 75.0 °F 79% 29.81 in 10.0 mi East 6.9 mph - N/A   Clear
4:53 AM 82.0 °F 88.6 °F 75.0 °F 79% 29.82 in 10.0 mi East 8.1 mph - N/A   Clear
5:53 AM 79.0 °F - 75.9 °F 90% 29.83 in 10.0 mi NNE 4.6 mph - N/A   Clear
6:53 AM 80.1 °F 85.4 °F 75.9 °F 87% 29.84 in 10.0 mi ENE 6.9 mph - N/A   Clear
7:53 AM 79.0 °F - 75.9 °F 90% 29.86 in 10.0 mi North 4.6 mph - N/A   Partly Cloudy
8:53 AM 81.0 °F 86.7 °F 75.0 °F 82% 29.87 in 10.0 mi NNE 9.2 mph - N/A   Clear
9:53 AM 86.0 °F 96.9 °F 77.0 °F 74% 29.88 in 10.0 mi NE 8.1 mph - N/A   Scattered Clouds
10:53 AM 88.0 °F 98.5 °F 75.9 °F 67% 29.89 in 10.0 mi ENE 16.1 mph - N/A   Clear
11:53 AM 89.1 °F 99.1 °F 75.0 °F 63% 29.89 in 10.0 mi ENE 15.0 mph - N/A   Clear
12:53 PM 90.0 °F 100.2 °F 75.0 °F 61% 29.88 in 10.0 mi ENE 12.7 mph - N/A   Clear
1:53 PM 90.0 °F 99.0 °F 73.9 °F 59% 29.87 in 10.0 mi East 13.8 mph - N/A   Clear
2:53 PM 91.0 °F 99.3 °F 73.0 °F 55% 29.85 in 10.0 mi East 16.1 mph - N/A   Clear
3:53 PM 90.0 °F 97.9 °F 73.0 °F 57% 29.84 in 10.0 mi East 13.8 mph - N/A   Clear
4:53 PM 89.1 °F 97.0 °F 73.0 °F 59% 29.83 in 10.0 mi East 15.0 mph 24.2 mph N/A   Partly Cloudy
5:53 PM 88.0 °F 95.6 °F 73.0 °F 61% 29.83 in 10.0 mi East 16.1 mph - N/A   Clear
6:53 PM 84.9 °F 91.4 °F 73.0 °F 67% 29.84 in 10.0 mi East 17.3 mph - N/A   Partly Cloudy
7:53 PM 84.0 °F 91.2 °F 73.9 °F 72% 29.86 in 10.0 mi East 15.0 mph 23.0 mph N/A   Clear
8:53 PM 84.0 °F 91.9 °F 75.0 °F 74% 29.86 in 10.0 mi East 12.7 mph 21.9 mph N/A   Clear
9:53 PM 84.0 °F 91.9 °F 75.0 °F 74% 29.88 in 10.0 mi East 11.5 mph - N/A   Partly Cloudy
10:53 PM 82.9 °F 90.8 °F 75.9 °F 79% 29.88 in 10.0 mi East 12.7 mph - N/A   Partly Cloudy
11:53 PM 82.9 °F 90.8 °F 75.9 °F 79% 29.89 in 10.0 mi East 12.7 mph - N/A   Partly Cloudy